QPF
0.00 0.00 0.00 0.00 0.00 0.00 0.00 0.00 0.00 0.00 0.00 0.00 0.00 0.00 0.00 0.00 0.00 0.00 0.00 0.00 0.00 0.00 0.00 0.00 0.00 0.00 0.00 0.00 0.00 0.00 0.00 0.00 0.00 0.01 0.01 0.01 0.01 0.01 0.00 0.00 0.00 0.00 0.00 0.00 0.00 0.00 0.00 0.00 0.00 0.00 0.00 0.00 0.00 0.01 0.01 0.03 0.06 0.08 0.11 0.21 0.13 0.08 0.15 0.14 0.09 0.08 0.05 0.04 0.04 0.04 0.10 0.01 0.01 0.01
0.00 0.00 0.00 0.00 0.00 0.00 0.00 0.00 0.00 0.00 0.00 0.00 0.00 0.00 0.00 0.00 0.00 0.00 0.00 0.00 0.00 0.00 0.00 0.00 0.00 0.00 0.00 0.00 0.00 0.00 0.00 0.00 0.00 0.00 0.01 0.01 0.01 0.00 0.00 0.00 0.00 0.00 0.00 0.00 0.00 0.00 0.00 0.00 0.00 0.00 0.00 0.00 0.00 0.00 0.01 0.01 0.01 0.03 0.07 0.11 0.12 0.13 0.07 0.09 0.12 0.11 0.08 0.09 0.13 0.07 0.07 0.02 0.02 0.06
0.00 0.00 0.00 0.00 0.00 0.00 0.00 0.00 0.00 0.00 0.00 0.00 0.00 0.00 0.00 0.00 0.00 0.00 0.00 0.00 0.00 0.00 0.00 0.00 0.00 0.00 0.00 0.00 0.00 0.00 0.00 0.00 0.00 0.00 0.00 0.00 0.01 0.00 0.00 0.00 0.00 0.00 0.00 0.00 0.00 0.00 0.00 0.00 0.00 0.00 0.00 0.00 0.00 0.00 0.00 0.00 0.00 0.01 0.02 0.03 0.04 0.09 0.11 0.09 0.08 0.11 0.13 0.09 0.11 0.11 0.12 0.10 0.05 0.05
0.00 0.00 0.00 0.00 0.00 0.00 0.00 0.00 0.00 0.00 0.00 0.00 0.00 0.00 0.00 0.00 0.00 0.00 0.00 0.00 0.00 0.00 0.00 0.00 0.00 0.00 0.00 0.00 0.00 0.00 0.00 0.00 0.00 0.00 0.00 0.00 0.00 0.00 0.00 0.00 0.00 0.00 0.00 0.00 0.00 0.00 0.00 0.00 0.00 0.00 0.00 0.00 0.00 0.00 0.00 0.00 0.00 0.00 0.01 0.02 0.02 0.03 0.05 0.08 0.07 0.07 0.10 0.12 0.09 0.10 0.11 0.10 0.11 0.11
0.00 0.00 0.00 0.00 0.00 0.00 0.00 0.00 0.00 0.00 0.00 0.00 0.00 0.00 0.00 0.00 0.00 0.00 0.00 0.00 0.00 0.00 0.00 0.00 0.00 0.00 0.00 0.00 0.00 0.00 0.00 0.00 0.00 0.00 0.00 0.00 0.00 0.00 0.00 0.00 0.00 0.00 0.00 0.00 0.00 0.00 0.00 0.00 0.00 0.00 0.00 0.00 0.00 0.00 0.00 0.00 0.00 0.00 0.00 0.00 0.01 0.00 0.01 0.02 0.08 0.07 0.10 0.13 0.14 0.08 0.08 0.12 0.12 0.14
0.00 0.00 0.00 0.00 0.00 0.00 0.00 0.00 0.00 0.00 0.00 0.00 0.00 0.00 0.00 0.00 0.00 0.00 0.00 0.00 0.00 0.00 0.00 0.00 0.00 0.00 0.00 0.00 0.00 0.00 0.00 0.00 0.00 0.00 0.00 0.00 0.00 0.00 0.00 0.00 0.00 0.00 0.00 0.00 0.00 0.00 0.00 0.00 0.00 0.00 0.00 0.00 0.00 0.00 0.00 0.00 0.00 0.00 0.00 0.00 0.00 0.00 0.01 0.00 0.01 0.03 0.09 0.11 0.12 0.14 0.05 0.08 0.10 0.12
0.00 0.00 0.00 0.00 0.00 0.00 0.00 0.00 0.00 0.00 0.00 0.00 0.00 0.00 0.00 0.00 0.00 0.00 0.00 0.00 0.00 0.00 0.00 0.00 0.00 0.00 0.00 0.00 0.00 0.00 0.00 0.00 0.00 0.00 0.00 0.00 0.00 0.00 0.00 0.00 0.00 0.00 0.00 0.00 0.00 0.00 0.00 0.00 0.00 0.00 0.00 0.00 0.00 0.00 0.00 0.00 0.00 0.00 0.00 0.00 0.00 0.00 0.00 0.00 0.00 0.00 0.01 0.04 0.07 0.12 0.14 0.07 0.06 0.09
0.00 0.00 0.00 0.00 0.00 0.00 0.00 0.00 0.00 0.00 0.00 0.00 0.00 0.00 0.00 0.00 0.00 0.00 0.00 0.00 0.00 0.00 0.00 0.00 0.00 0.00 0.00 0.00 0.00 0.00 0.00 0.00 0.00 0.00 0.00 0.00 0.00 0.00 0.00 0.00 0.00 0.00 0.00 0.00 0.00 0.00 0.00 0.00 0.00 0.00 0.00 0.00 0.00 0.00 0.00 0.00 0.00 0.00 0.00 0.00 0.00 0.00 0.00 0.00 0.00 0.00 0.00 0.01 0.01 0.02 0.07 0.12 0.07 0.02
0.00 0.00 0.00 0.00 0.00 0.00 0.00 0.00 0.00 0.00 0.00 0.00 0.00 0.00 0.00 0.00 0.00 0.00 0.00 0.00 0.00 0.00 0.00 0.00 0.00 0.00 0.00 0.00 0.00 0.00 0.00 0.00 0.00 0.00 0.00 0.00 0.00 0.00 0.00 0.00 0.00 0.00 0.00 0.00 0.00 0.00 0.00 0.00 0.00 0.00 0.00 0.00 0.00 0.00 0.00 0.00 0.00 0.00 0.00 0.00 0.00 0.00 0.00 0.00 0.00 0.01 0.00 0.00 0.01 0.01 0.01 0.04 0.09 0.06
0.00 0.00 0.00 0.00 0.00 0.00 0.00 0.00 0.00 0.00 0.00 0.00 0.00 0.00 0.00 0.00 0.00 0.00 0.00 0.00 0.00 0.00 0.00 0.00 0.00 0.00 0.00 0.00 0.00 0.00 0.00 0.00 0.00 0.00 0.00 0.00 0.00 0.00 0.00 0.00 0.00 0.00 0.00 0.00 0.00 0.00 0.00 0.00 0.00 0.00 0.00 0.00 0.00 0.00 0.00 0.00 0.00 0.00 0.00 0.00 0.00 0.00 0.00 0.00 0.00 0.00 0.00 0.00 0.00 0.00 0.00 0.01 0.03 0.05
0.00 0.00 0.00 0.00 0.00 0.00 0.00 0.00 0.00 0.00 0.00 0.00 0.00 0.00 0.00 0.00 0.00 0.00 0.00 0.00 0.00 0.00 0.00 0.00 0.00 0.00 0.00 0.00 0.00 0.00 0.00 0.00 0.00 0.00 0.00 0.00 0.00 0.00 0.00 0.00 0.00 0.00 0.00 0.00 0.00 0.00 0.00 0.00 0.00 0.00 0.00 0.00 0.00 0.00 0.00 0.00 0.00 0.00 0.00 0.00 0.00 0.00 0.00 0.00 0.00 0.00 0.00 0.00 0.00 0.00 0.00 0.00 0.01 0.02
0.00 0.00 0.00 0.00 0.00 0.00 0.00 0.00 0.00 0.00 0.00 0.00 0.00 0.00 0.00 0.00 0.00 0.00 0.00 0.00 0.00 0.00 0.00 0.00 0.00 0.00 0.00 0.00 0.00 0.00 0.00 0.00 0.00 0.00 0.00 0.00 0.00 0.00 0.00 0.00 0.00 0.00 0.00 0.00 0.00 0.00 0.00 0.00 0.00 0.00 0.00 0.00 0.00 0.00 0.00 0.00 0.00 0.00 0.00 0.00 0.00 0.00 0.00 0.00 0.00 0.00 0.00 0.00 0.01 0.00 0.00 0.00 0.00 0.00
0.00 0.00 0.00 0.00 0.00 0.00 0.00 0.00 0.00 0.00 0.00 0.00 0.00 0.00 0.00 0.00 0.00 0.00 0.00 0.00 0.00 0.00 0.00 0.00 0.00 0.00 0.00 0.00 0.00 0.00 0.00 0.00 0.00 0.00 0.00 0.00 0.00 0.00 0.00 0.00 0.00 0.00 0.00 0.00 0.00 0.00 0.00 0.00 0.00 0.00 0.00 0.00 0.00 0.00 0.00 0.00 0.00 0.00 0.00 0.00 0.00 0.00 0.00 0.00 0.00 0.00 0.00 0.00 0.00 0.00 0.00 0.00 0.00 0.00
0.00 0.00 0.00 0.00 0.00 0.00 0.00 0.00 0.00 0.00 0.00 0.00 0.00 0.00 0.00 0.00 0.00 0.00 0.00 0.00 0.00 0.00 0.00 0.00 0.00 0.00 0.00 0.00 0.00 0.00 0.00 0.00 0.00 0.00 0.00 0.00 0.00 0.00 0.00 0.00 0.00 0.00 0.00 0.00 0.00 0.00 0.00 0.00 0.00 0.00 0.00 0.00 0.00 0.00 0.00 0.00 0.00 0.00 0.00 0.00 0.00 0.00 0.00 0.00 0.00 0.00 0.00 0.00 0.00 0.00 0.00 0.00 0.00 0.00
0.00 0.00 0.00 0.00 0.00 0.00 0.01 0.01 0.00 0.00 0.00 0.00 0.00 0.00 0.00 0.00 0.00 0.00 0.00 0.00 0.00 0.00 0.00 0.00 0.00 0.00 0.00 0.00 0.00 0.00 0.00 0.00 0.00 0.00 0.00 0.00 0.00 0.00 0.00 0.00 0.00 0.00 0.00 0.00 0.00 0.00 0.00 0.00 0.00 0.00 0.00 0.00 0.00 0.00 0.00 0.00 0.00 0.00 0.00 0.00 0.00 0.00 0.00 0.00 0.00 0.00 0.00 0.00 0.00 0.00 0.00 0.00 0.00 0.00
0.00 0.00 0.00 0.00 0.00 0.00 0.00 0.00 0.00 0.00 0.00 0.00 0.00 0.00 0.00 0.00 0.00 0.00 0.00 0.00 0.00 0.00 0.00 0.00 0.00 0.00 0.00 0.00 0.00 0.00 0.00 0.00 0.00 0.00 0.00 0.00 0.00 0.00 0.00 0.00 0.00 0.00 0.01 0.02 0.02 0.01 0.00 0.00 0.00 0.00 0.00 0.00 0.00 0.00 0.00 0.00 0.00 0.00 0.00 0.00 0.00 0.00 0.00 0.00 0.00 0.00 0.00 0.00 0.00 0.00 0.00 0.00 0.00 0.01
0.00 0.00 0.00 0.00 0.00 0.00 0.00 0.00 0.00 0.00 0.00 0.00 0.00 0.00 0.00 0.00 0.01 0.01 0.01 0.00 0.00 0.00 0.00 0.00 0.00 0.00 0.00 0.00 0.00 0.00 0.00 0.00 0.00 0.00 0.00 0.00 0.00 0.00 0.00 0.00 0.00 0.00 0.00 0.00 0.02 0.01 0.00 0.00 0.00 0.00 0.00 0.00 0.00 0.00 0.00 0.00 0.00 0.00 0.00 0.00 0.00 0.00 0.00 0.00 0.00 0.00 0.00 0.00 0.00 0.00 0.00 0.00 0.00 0.00
0.00 0.00 0.00 0.00 0.00 0.00 0.00 0.00 0.00 0.00 0.00 0.00 0.00 0.00 0.00 0.00 0.00 0.00 0.01 0.03 0.03 0.01 0.00 0.00 0.00 0.00 0.00 0.00 0.00 0.00 0.00 0.00 0.00 0.00 0.00 0.00 0.00 0.00 0.00 0.00 0.00 0.00 0.01 0.05 0.01 0.00 0.00 0.00 0.00 0.00 0.00 0.00 0.00 0.00 0.00 0.00 0.00 0.00 0.00 0.00 0.00 0.00 0.00 0.00 0.00 0.00 0.00 0.00 0.00 0.00 0.00 0.00 0.00 0.00
0.00 0.00 0.01 0.00 0.00 0.00 0.00 0.00 0.00 0.00 0.00 0.00 0.00 0.00 0.00 0.00 0.00 0.00 0.00 0.00 0.01 0.04 0.05 0.02 0.00 0.00 0.00 0.00 0.00 0.00 0.00 0.00 0.00 0.00 0.00 0.00 0.00 0.00 0.00 0.00 0.00 0.00 0.00 0.00 0.01 0.02 0.00 0.00 0.00 0.00 0.00 0.00 0.00 0.00 0.00 0.00 0.00 0.00 0.00 0.00 0.00 0.00 0.00 0.00 0.00 0.00 0.00 0.00 0.00 0.00 0.00 0.00 0.00 0.00
0.00 0.00 0.00 0.00 0.00 0.00 0.00 0.00 0.00 0.00 0.00 0.00 0.00 0.00 0.00 0.00 0.00 0.00 0.00 0.00 0.00 0.00 0.00 0.01 0.01 0.00 0.00 0.00 0.00 0.00 0.00 0.00 0.00 0.00 0.00 0.00 0.00 0.00 0.00 0.00 0.00 0.00 0.00 0.00 0.00 0.00 0.00 0.00 0.00 0.00 0.00 0.00 0.00 0.00 0.00 0.00 0.00 0.00 0.00 0.00 0.00 0.00 0.00 0.00 0.00 0.00 0.00 0.00 0.00 0.00 0.00 0.00 0.00 0.00
0.00 0.00 0.00 0.00 0.00 0.00 0.00 0.00 0.00 0.00 0.01 0.00 0.01 0.01 0.01 0.00 0.00 0.00 0.00 0.00 0.00 0.00 0.00 0.00 0.00 0.00 0.00 0.00 0.00 0.00 0.00 0.00 0.00 0.00 0.00 0.00 0.00 0.01 0.01 0.00 0.00 0.00 0.00 0.00 0.00 0.00 0.00 0.00 0.00 0.00 0.00 0.00 0.00 0.00 0.00 0.00 0.00 0.00 0.00 0.00 0.00 0.00 0.00 0.00 0.00 0.00 0.00 0.00 0.00 0.00 0.00 0.00 0.00 0.00
0.00 0.00 0.00 0.00 0.00 0.00 0.00 0.00 0.00 0.00 0.02 0.01 0.00 0.00 0.00 0.00 0.00 0.00 0.00 0.00 0.00 0.00 0.00 0.00 0.00 0.00 0.00 0.00 0.00 0.01 0.01 0.02 0.03 0.01 0.01 0.00 0.00 0.02 0.02 0.01 0.00 0.00 0.00 0.01 0.01 0.01 0.01 0.00 0.00 0.00 0.00 0.00 0.00 0.00 0.00 0.00 0.00 0.00 0.00 0.00 0.00 0.00 0.00 0.00 0.00 0.00 0.00 0.00 0.00 0.00 0.00 0.00 0.00 0.01
0.00 0.00 0.00 0.00 0.00 0.00 0.00 0.00 0.00 0.00 0.00 0.02 0.01 0.00 0.00 0.00 0.00 0.00 0.00 0.00 0.00 0.00 0.00 0.00 0.00 0.00 0.00 0.01 0.01 0.01 0.00 0.00 0.02 0.08 0.04 0.00 0.01 0.02 0.01 0.00 0.00 0.01 0.00 0.00 0.01 0.03 0.00 0.00 0.00 0.00 0.01 0.03 0.00 0.00 0.00 0.00 0.00 0.00 0.00 0.00 0.00 0.00 0.00 0.00 0.00 0.00 0.00 0.00 0.00 0.00 0.00 0.00 0.00 0.00
0.00 0.00 0.00 0.00 0.00 0.00 0.00 0.01 0.01 0.02 0.04 0.06 0.03 0.01 0.01 0.00 0.00 0.00 0.00 0.00 0.00 0.00 0.00 0.00 0.00 0.00 0.00 0.00 0.00 0.00 0.00 0.00 0.00 0.02 0.03 0.02 0.03 0.06 0.03 0.01 0.00 0.01 0.00 0.01 0.05 0.04 0.00 0.08 0.02 0.07 0.03 0.01 0.01 0.01 0.00 0.00 0.00 0.00 0.00 0.00 0.00 0.00 0.00 0.00 0.00 0.00 0.00 0.00 0.00 0.00 0.00 0.00 0.00 0.00
0.01 0.00 0.00 0.00 0.00 0.00 0.00 0.00 0.01 0.01 0.01 0.01 0.04 0.06 0.04 0.01 0.00 0.00 0.00 0.00 0.00 0.00 0.00 0.00 0.00 0.00 0.00 0.00 0.00 0.00 0.00 0.00 0.00 0.00 0.00 0.00 0.00 0.01 0.02 0.01 0.00 0.00 0.00 0.00 0.04 0.02 0.01 0.03 0.03 0.03 0.03 0.06 0.01 0.08 0.03 0.00 0.00 0.00 0.00 0.00 0.00 0.00 0.00 0.00 0.00 0.00 0.00 0.00 0.00 0.00 0.00 0.00 0.00 0.01
0.01 0.01 0.00 0.00 0.00 0.00 0.00 0.00 0.00 0.00 0.00 0.01 0.01 0.01 0.05 0.05 0.03 0.02 0.01 0.00 0.00 0.00 0.00 0.00 0.00 0.00 0.00 0.00 0.00 0.00 0.00 0.00 0.00 0.00 0.00 0.00 0.00 0.00 0.00 0.00 0.00 0.00 0.00 0.01 0.02 0.04 0.02 0.01 0.02 0.01 0.01 0.07 0.02 0.03 0.03 0.03 0.00 0.00 0.00 0.00 0.00 0.00 0.00 0.00 0.00 0.00 0.00 0.00 0.00 0.00 0.00 0.00 0.00 0.00
0.00 0.01 0.01 0.00 0.00 0.00 0.00 0.00 0.00 0.00 0.01 0.02 0.03 0.04 0.03 0.02 0.03 0.04 0.05 0.06 0.02 0.00 0.00 0.00 0.00 0.00 0.00 0.00 0.00 0.00 0.00 0.00 0.00 0.00 0.00 0.00 0.00 0.00 0.00 0.00 0.00 0.00 0.00 0.03 0.07 0.08 0.07 0.03 0.01 0.04 0.01 0.02 0.02 0.05 0.02 0.02 0.01 0.00 0.00 0.00 0.00 0.00 0.00 0.00 0.00 0.00 0.00 0.00 0.00 0.00 0.00 0.00 0.00 0.00
0.00 0.00 0.01 0.01 0.00 0.00 0.00 0.00 0.00 0.01 0.01 0.01 0.01 0.00 0.00 0.00 0.00 0.00 0.00 0.01 0.03 0.04 0.01 0.01 0.00 0.00 0.00 0.00 0.00 0.00 0.00 0.00 0.00 0.00 0.00 0.00 0.00 0.00 0.00 0.00 0.00 0.00 0.00 0.00 0.01 0.02 0.06 0.04 0.02 0.02 0.02 0.01 0.02 0.03 0.02 0.00 0.01 0.01 0.00 0.00 0.00 0.00 0.00 0.00 0.00 0.00 0.00 0.00 0.00 0.00 0.00 0.00 0.00 0.00
0.00 0.00 0.00 0.00 0.00 0.00 0.00 0.01 0.01 0.01 0.01 0.01 0.00 0.00 0.00 0.00 0.00 0.00 0.00 0.00 0.00 0.01 0.03 0.02 0.01 0.00 0.00 0.00 0.00 0.00 0.00 0.00 0.00 0.00 0.00 0.00 0.00 0.00 0.00 0.00 0.00 0.00 0.00 0.00 0.00 0.00 0.00 0.00 0.00 0.01 0.02 0.01 0.01 0.01 0.02 0.03 0.02 0.01 0.01 0.01 0.00 0.00 0.00 0.00 0.00 0.00 0.00 0.00 0.00 0.00 0.00 0.00 0.00 0.00
0.01 0.00 0.00 0.00 0.00 0.00 0.01 0.01 0.00 0.00 0.00 0.00 0.00 0.00 0.00 0.00 0.00 0.00 0.00 0.00 0.00 0.00 0.00 0.00 0.01 0.01 0.01 0.01 0.01 0.01 0.00 0.00 0.00 0.00 0.00 0.00 0.00 0.00 0.00 0.00 0.00 0.00 0.00 0.00 0.00 0.00 0.00 0.00 0.00 0.00 0.01 0.01 0.01 0.00 0.01 0.00 0.01 0.01 0.01 0.01 0.00 0.00 0.00 0.00 0.00 0.00 0.00 0.00 0.00 0.00 0.00 0.00 0.00 0.00
0.02 0.01 0.00 0.00 0.00 0.00 0.00 0.00 0.00 0.00 0.00 0.00 0.00 0.00 0.00 0.00 0.00 0.00 0.00 0.00 0.00 0.00 0.00 0.00 0.00 0.00 0.00 0.01 0.03 0.02 0.02 0.02 0.01 0.01 0.01 0.01 0.00 0.00 0.00 0.00 0.00 0.00 0.00 0.00 0.00 0.00 0.00 0.00 0.00 0.00 0.00 0.00 0.01 0.00 0.00 0.01 0.01 0.02 0.01 0.01 0.00 0.00 0.00 0.00 0.00 0.00 0.00 0.00 0.00 0.00 0.00 0.00 0.00 0.00
0.01 0.01 0.01 0.01 0.01 0.00 0.00 0.00 0.00 0.00 0.00 0.00 0.00 0.00 0.00 0.00 0.00 0.00 0.00 0.00 0.00 0.00 0.00 0.01 0.01 0.01 0.00 0.00 0.00 0.00 0.00 0.00 0.00 0.00 0.00 0.00 0.00 0.00 0.00 0.00 0.00 0.00 0.00 0.00 0.00 0.00 0.00 0.00 0.00 0.00 0.00 0.00 0.00 0.00 0.00 0.00 0.01 0.01 0.01 0.01 0.00 0.00 0.00 0.00 0.00 0.00 0.00 0.00 0.00 0.00 0.00 0.00 0.00 0.00
0.00 0.01 0.01 0.01 0.01 0.00 0.00 0.00 0.00 0.00 0.00 0.00 0.00 0.00 0.00 0.00 0.00 0.00 0.00 0.00 0.00 0.00 0.00 0.00 0.01 0.00 0.01 0.01 0.00 0.00 0.01 0.01 0.01 0.02 0.01 0.01 0.00 0.01 0.00 0.00 0.00 0.00 0.00 0.00 0.00 0.00 0.00 0.00 0.00 0.00 0.00 0.00 0.00 0.00 0.01 0.01 0.00 0.01 0.01 0.01 0.00 0.00 0.00 0.00 0.00 0.00 0.00 0.00 0.00 0.00 0.00 0.00 0.00 0.00
0.00 0.01 0.01 0.01 0.01 0.01 0.00 0.00 0.00 0.00 0.00 0.00 0.00 0.00 0.00 0.00 0.00 0.00 0.00 0.00 0.00 0.00 0.00 0.00 0.00 0.00 0.00 0.00 0.01 0.01 0.01 0.01 0.01 0.01 0.04 0.03 0.02 0.01 0.01 0.01 0.00 0.00 0.00 0.00 0.00 0.00 0.00 0.00 0.00 0.00 0.00 0.00 0.00 0.00 0.00 0.00 0.00 0.00 0.00 0.00 0.00 0.00 0.00 0.00 0.00 0.00 0.00 0.00 0.00 0.00 0.00 0.00 0.00 0.00
0.01 0.01 0.01 0.01 0.01 0.00 0.00 0.00 0.00 0.00 0.00 0.00 0.00 0.00 0.00 0.00 0.00 0.00 0.00 0.00 0.00 0.00 0.00 0.00 0.00 0.00 0.00 0.00 0.00 0.00 0.00 0.00 0.00 0.01 0.01 0.02 0.03 0.04 0.03 0.02 0.01 0.00 0.00 0.00 0.00 0.00 0.00 0.00 0.00 0.00 0.00 0.00 0.00 0.00 0.00 0.00 0.01 0.00 0.01 0.01 0.00 0.00 0.00 0.00 0.00 0.00 0.00 0.00 0.00 0.00 0.00 0.00 0.00 0.00
0.00 0.00 0.00 0.00 0.00 0.00 0.00 0.00 0.00 0.00 0.00 0.00 0.00 0.00 0.00 0.00 0.00 0.00 0.00 0.00 0.00 0.00 0.00 0.00 0.00 0.00 0.00 0.00 0.00 0.00 0.00 0.00 0.00 0.00 0.01 0.01 0.02 0.04 0.02 0.02 0.02 0.01 0.00 0.00 0.00 0.01 0.01 0.00 0.00 0.00 0.00 0.00 0.00 0.00 0.00 0.00 0.00 0.00 0.00 0.00 0.00 0.00 0.00 0.00 0.00 0.00 0.00 0.00 0.00 0.00 0.00 0.00 0.00 0.00
0.01 0.01 0.00 0.00 0.00 0.00 0.00 0.00 0.00 0.00 0.00 0.00 0.00 0.00 0.00 0.00 0.00 0.00 0.00 0.00 0.00 0.00 0.00 0.00 0.00 0.00 0.00 0.00 0.00 0.00 0.00 0.00 0.00 0.00 0.00 0.01 0.02 0.03 0.02 0.04 0.02 0.02 0.01 0.00 0.00 0.01 0.01 0.01 0.01 0.00 0.00 0.00 0.00 0.00 0.00 0.00 0.00 0.00 0.00 0.00 0.00 0.00 0.00 0.00 0.00 0.00 0.00 0.00 0.00 0.00 0.00 0.00 0.00 0.00
0.02 0.01 0.01 0.00 0.00 0.00 0.00 0.00 0.00 0.00 0.00 0.00 0.00 0.00 0.00 0.00 0.00 0.00 0.00 0.00 0.00 0.00 0.00 0.00 0.00 0.00 0.00 0.00 0.00 0.00 0.00 0.00 0.01 0.01 0.00 0.00 0.01 0.02 0.02 0.02 0.02 0.02 0.01 0.01 0.01 0.01 0.01 0.01 0.01 0.00 0.00 0.00 0.00 0.00 0.00 0.00 0.00 0.00 0.00 0.00 0.00 0.00 0.00 0.00 0.00 0.00 0.00 0.00 0.00 0.00 0.00 0.00 0.00 0.00
0.03 0.01 0.01 0.00 0.00 0.00 0.00 0.00 0.00 0.00 0.00 0.00 0.00 0.00 0.00 0.00 0.00 0.00 0.00 0.00 0.00 0.00 0.00 0.00 0.00 0.00 0.00 0.00 0.00 0.00 0.00 0.01 0.01 0.01 0.01 0.01 0.01 0.01 0.02 0.02 0.02 0.02 0.02 0.02 0.02 0.01 0.01 0.01 0.00 0.00 0.00 0.00 0.00 0.00 0.00 0.00 0.00 0.00 0.00 0.00 0.00 0.00 0.00 0.00 0.00 0.00 0.00 0.00 0.00 0.00 0.00 0.00 0.00 0.00
0.02 0.01 0.01 0.00 0.01 0.01 0.01 0.00 0.00 0.00 0.00 0.00 0.00 0.00 0.00 0.00 0.00 0.00 0.00 0.00 0.00 0.00 0.00 0.00 0.00 0.00 0.00 0.00 0.00 0.00 0.00 0.00 0.00 0.01 0.01 0.00 0.00 0.01 0.01 0.01 0.01 0.01 0.01 0.03 0.03 0.03 0.02 0.00 0.00 0.00 0.00 0.00 0.00 0.00 0.00 0.00 0.00 0.00 0.00 0.00 0.00 0.00 0.00 0.00 0.00 0.00 0.00 0.00 0.00 0.00 0.00 0.00 0.00 0.00
0.01 0.01 0.01 0.01 0.01 0.01 0.01 0.01 0.00 0.00 0.00 0.00 0.00 0.00 0.00 0.00 0.00 0.00 0.00 0.00 0.00 0.00 0.00 0.00 0.00 0.00 0.00 0.00 0.00 0.00 0.00 0.00 0.00 0.00 0.01 0.00 0.00 0.00 0.01 0.01 0.01 0.01 0.01 0.02 0.04 0.02 0.01 0.00 0.00 0.00 0.00 0.01 0.00 0.00 0.00 0.01 0.01 0.00 0.00 0.00 0.00 0.00 0.00 0.00 0.00 0.00 0.00 0.00 0.01 0.00 0.00 0.00 0.00 0.00
0.01 0.01 0.01 0.01 0.01 0.01 0.01 0.00 0.00 0.00 0.00 0.00 0.00 0.00 0.00 0.00 0.00 0.00 0.00 0.00 0.00 0.00 0.00 0.00 0.00 0.00 0.00 0.00 0.00 0.00 0.00 0.00 0.00 0.00 0.01 0.01 0.01 0.00 0.00 0.02 0.01 0.01 0.02 0.02 0.01 0.01 0.01 0.00 0.01 0.02 0.01 0.01 0.02 0.02 0.02 0.01 0.00 0.00 0.00 0.00 0.00 0.00 0.00 0.01 0.01 0.02 0.02 0.02 0.01 0.01 0.00 0.00 0.00 0.00
0.00 0.01 0.01 0.01 0.01 0.01 0.00 0.00 0.00 0.00 0.00 0.00 0.00 0.00 0.00 0.00 0.00 0.00 0.00 0.00 0.00 0.00 0.00 0.00 0.00 0.00 0.00 0.00 0.00 0.00 0.00 0.00 0.00 0.00 0.00 0.01 0.01 0.02 0.01 0.00 0.01 0.02 0.01 0.03 0.01 0.01 0.01 0.01 0.02 0.02 0.02 0.03 0.03 0.02 0.02 0.01 0.01 0.00 0.00 0.00 0.00 0.00 0.01 0.01 0.02 0.02 0.02 0.02 0.01 0.01 0.01 0.00 0.00 0.00
0.00 0.01 0.01 0.01 0.01 0.00 0.00 0.00 0.00 0.00 0.00 0.00 0.00 0.00 0.00 0.00 0.00 0.00 0.00 0.00 0.00 0.00 0.00 0.00 0.00 0.00 0.00 0.00 0.00 0.00 0.00 0.00 0.00 0.00 0.00 0.00 0.01 0.02 0.02 0.01 0.01 0.01 0.01 0.01 0.01 0.01 0.01 0.02 0.02 0.02 0.03 0.02 0.01 0.01 0.02 0.02 0.01 0.01 0.01 0.00 0.00 0.00 0.01 0.01 0.01 0.01 0.02 0.02 0.03 0.01 0.00 0.00 0.00 0.00
0.01 0.01 0.01 0.01 0.01 0.01 0.01 0.01 0.00 0.00 0.00 0.00 0.00 0.00 0.00 0.00 0.00 0.00 0.00 0.00 0.00 0.00 0.00 0.00 0.00 0.00 0.00 0.00 0.00 0.00 0.00 0.00 0.00 0.00 0.00 0.00 0.00 0.02 0.03 0.01 0.01 0.01 0.00 0.01 0.01 0.01 0.01 0.01 0.01 0.01 0.01 0.01 0.00 0.00 0.01 0.01 0.00 0.01 0.01 0.00 0.00 0.00 0.00 0.00 0.01 0.01 0.02 0.02 0.01 0.01 0.01 0.00 0.00 0.00
MSLP
1022.91 1022.91 1022.95 1022.91 1022.71 1022.63 1022.55 1022.51 1022.39 1022.31 1022.27 1022.11 1021.99 1021.91 1021.91 1021.91 1022.11 1021.91 1021.59 1020.95 1020.63 1019.95 1020.15 1019.99 1019.19 1019.23 1019.35 1019.47 1019.63 1019.87 1019.95 1019.95 1020.07 1020.07 1020.07 1020.03 1019.99 1019.91 1019.75 1019.51 1019.31 1019.11 1018.87 1018.63 1018.43 1018.07 1017.79 1017.51 1017.31 1017.11 1016.91 1016.67 1016.43 1016.19 1015.83 1015.59 1015.39 1015.31 1015.35 1015.35 1015.51 1015.63 1015.39 1015.23 1015.07 1015.11 1015.23 1015.23 1015.31 1015.47 1015.43 1015.43 1015.47 1015.59
1022.79 1022.71 1022.71 1022.67 1022.59 1022.43 1022.39 1022.27 1022.27 1022.19 1022.07 1022.03 1021.91 1021.87 1021.79 1021.75 1021.91 1021.71 1021.87 1021.27 1020.75 1020.43 1019.95 1019.87 1019.51 1019.27 1019.43 1019.43 1019.59 1019.75 1019.79 1019.87 1019.99 1019.95 1019.95 1019.99 1020.03 1019.99 1019.83 1019.63 1019.43 1019.23 1019.03 1018.87 1018.63 1018.31 1018.03 1017.71 1017.51 1017.31 1017.11 1016.95 1016.71 1016.55 1016.23 1015.95 1015.83 1015.67 1015.51 1015.59 1015.63 1015.71 1015.67 1015.51 1015.35 1015.27 1015.31 1015.47 1015.43 1015.67 1015.71 1015.67 1015.87 1016.07
1022.71 1022.79 1022.75 1022.63 1022.47 1022.35 1022.23 1022.19 1022.23 1022.23 1022.23 1022.11 1022.03 1021.91 1021.87 1021.83 1021.91 1021.87 1021.99 1022.15 1021.07 1020.95 1020.63 1020.15 1019.91 1019.79 1019.67 1019.63 1019.67 1019.67 1019.79 1019.87 1019.95 1019.91 1019.87 1019.95 1020.03 1020.03 1019.83 1019.59 1019.39 1019.15 1019.03 1018.87 1018.75 1018.47 1018.19 1017.83 1017.55 1017.35 1017.23 1017.07 1016.87 1016.71 1016.47 1016.27 1016.15 1016.03 1015.71 1015.67 1015.75 1015.79 1015.75 1015.67 1015.55 1015.47 1015.43 1015.47 1015.59 1015.79 1015.83 1015.91 1016.07 1016.11
1022.71 1022.63 1022.67 1022.63 1022.47 1022.35 1022.23 1022.07 1022.03 1022.11 1022.07 1022.11 1022.03 1021.99 1021.95 1021.87 1021.91 1022.03 1022.11 1022.11 1021.79 1021.31 1021.15 1020.71 1020.47 1020.35 1020.19 1020.07 1019.95 1019.91 1019.83 1019.83 1019.99 1019.91 1019.87 1019.83 1019.91 1019.83 1019.63 1019.39 1019.19 1018.99 1018.87 1018.79 1018.71 1018.51 1018.23 1017.95 1017.71 1017.47 1017.31 1017.15 1016.95 1016.79 1016.71 1016.55 1016.43 1016.31 1016.11 1015.83 1015.83 1015.91 1015.87 1015.83 1015.83 1015.71 1015.51 1015.47 1015.59 1015.75 1015.95 1016.11 1016.27 1016.43
1022.71 1022.75 1022.79 1022.75 1022.67 1022.59 1022.43 1022.15 1021.95 1021.83 1021.91 1021.95 1021.95 1021.87 1021.83 1021.83 1021.79 1021.91 1022.03 1022.11 1021.79 1021.31 1021.15 1020.95 1020.83 1020.63 1020.51 1020.31 1020.27 1020.11 1019.87 1019.75 1019.75 1019.87 1019.83 1019.75 1019.67 1019.59 1019.43 1019.19 1018.99 1018.79 1018.67 1018.63 1018.59 1018.47 1018.27 1018.03 1017.83 1017.67 1017.43 1017.19 1017.07 1016.99 1016.91 1016.83 1016.67 1016.51 1016.47 1016.31 1016.07 1015.91 1015.91 1015.95 1015.99 1015.95 1015.83 1015.67 1015.67 1015.83 1016.07 1016.27 1016.39 1016.55
1022.59 1022.59 1022.63 1022.55 1022.63 1022.71 1022.75 1022.63 1022.39 1021.91 1021.87 1021.83 1021.87 1021.79 1021.75 1021.71 1021.71 1021.63 1021.79 1021.75 1021.75 1021.59 1021.07 1020.75 1020.51 1020.47 1020.59 1020.47 1020.15 1020.15 1020.03 1019.87 1019.71 1019.67 1019.75 1019.63 1019.47 1019.31 1019.15 1018.91 1018.71 1018.63 1018.55 1018.55 1018.47 1018.35 1018.19 1018.03 1017.83 1017.63 1017.51 1017.31 1017.11 1016.99 1016.95 1016.83 1016.71 1016.67 1016.75 1016.63 1016.47 1016.15 1016.07 1016.11 1016.07 1016.03 1016.07 1015.99 1015.87 1015.95 1016.03 1016.27 1016.51 1016.71
1022.43 1022.47 1022.47 1022.43 1022.35 1022.35 1022.51 1022.51 1022.51 1022.47 1022.23 1021.95 1021.79 1021.71 1021.63 1021.59 1021.55 1021.55 1021.55 1021.67 1021.75 1021.67 1021.47 1021.19 1020.91 1020.63 1020.43 1020.43 1020.15 1020.07 1019.95 1019.83 1019.71 1019.59 1019.47 1019.43 1019.27 1019.03 1018.87 1018.71 1018.43 1018.39 1018.47 1018.43 1018.35 1018.15 1017.95 1017.79 1017.67 1017.55 1017.39 1017.23 1017.11 1016.95 1016.91 1016.83 1016.79 1016.87 1016.91 1016.79 1016.67 1016.55 1016.43 1016.35 1016.19 1016.11 1016.11 1016.23 1015.95 1015.95 1016.19 1016.35 1016.51 1016.79
1022.23 1022.19 1022.27 1022.19 1022.19 1022.19 1022.23 1022.23 1022.19 1022.11 1022.15 1022.11 1021.91 1021.71 1021.59 1021.55 1021.51 1021.43 1021.43 1021.47 1021.59 1021.55 1021.55 1021.11 1020.99 1020.63 1020.35 1020.11 1019.99 1019.91 1019.83 1019.75 1019.63 1019.51 1019.23 1018.99 1018.91 1018.79 1018.59 1018.43 1018.35 1018.27 1018.27 1018.23 1018.15 1017.99 1017.79 1017.55 1017.39 1017.35 1017.27 1017.11 1016.99 1016.99 1016.95 1016.91 1016.91 1017.03 1017.03 1016.91 1016.79 1016.67 1016.63 1016.47 1016.27 1016.07 1016.03 1016.11 1016.11 1016.03 1016.11 1016.39 1016.63 1016.91
1021.99 1021.87 1021.87 1021.91 1022.03 1022.07 1022.07 1021.99 1021.87 1021.79 1021.83 1021.87 1021.87 1021.79 1021.63 1021.47 1021.31 1021.35 1021.39 1021.35 1021.35 1021.39 1021.39 1021.19 1020.91 1020.71 1020.51 1020.23 1020.03 1019.87 1019.71 1019.51 1019.31 1019.11 1018.99 1018.91 1018.75 1018.67 1018.55 1018.31 1018.19 1018.19 1018.15 1018.03 1017.87 1017.71 1017.51 1017.31 1017.15 1017.07 1017.03 1016.99 1016.91 1016.79 1016.83 1016.83 1016.87 1016.99 1017.07 1016.95 1016.87 1016.79 1016.67 1016.55 1016.39 1016.15 1015.99 1016.07 1016.23 1016.39 1016.39 1016.35 1016.67 1017.07
1021.87 1021.75 1021.63 1021.59 1021.67 1021.75 1021.75 1021.59 1021.47 1021.51 1021.55 1021.59 1021.59 1021.67 1021.59 1021.47 1021.39 1021.27 1021.23 1021.23 1021.23 1021.27 1021.19 1021.15 1020.95 1020.75 1020.67 1020.39 1020.23 1020.03 1019.83 1019.51 1019.19 1018.83 1018.63 1018.39 1018.31 1018.35 1018.39 1018.35 1018.19 1017.95 1017.79 1017.63 1017.47 1017.31 1017.11 1016.99 1016.91 1016.79 1016.75 1016.75 1016.75 1016.71 1016.59 1016.63 1016.67 1016.79 1016.87 1016.91 1016.87 1016.83 1016.71 1016.55 1016.43 1016.27 1016.15 1016.19 1016.39 1016.59 1016.71 1016.71 1016.71 1016.95
1021.75 1021.55 1021.39 1021.39 1021.35 1021.39 1021.39 1021.39 1021.39 1021.35 1021.35 1021.31 1021.43 1021.55 1021.63 1021.71 1021.55 1021.43 1021.31 1021.23 1021.23 1021.19 1021.15 1020.99 1020.91 1020.71 1020.43 1020.31 1020.03 1019.71 1019.67 1019.43 1019.31 1019.07 1018.63 1018.31 1018.11 1017.91 1017.83 1017.75 1017.67 1017.55 1017.35 1017.15 1017.07 1016.95 1016.83 1016.63 1016.51 1016.43 1016.47 1016.51 1016.51 1016.51 1016.51 1016.43 1016.39 1016.47 1016.59 1016.63 1016.67 1016.67 1016.59 1016.47 1016.35 1016.31 1016.23 1016.27 1016.43 1016.63 1016.79 1016.87 1016.95 1017.03
1021.35 1021.19 1021.07 1020.99 1020.99 1020.99 1020.95 1021.03 1021.03 1021.19 1021.15 1021.11 1021.27 1021.27 1021.39 1021.43 1021.55 1021.47 1021.31 1021.27 1021.19 1021.11 1021.07 1020.95 1020.75 1020.51 1020.43 1020.19 1019.95 1019.75 1019.55 1019.43 1019.31 1019.23 1019.11 1018.67 1018.15 1017.99 1017.71 1017.43 1017.23 1017.07 1016.91 1016.71 1016.51 1016.39 1016.31 1016.31 1016.35 1016.31 1016.23 1016.19 1016.23 1016.31 1016.35 1016.31 1016.27 1016.23 1016.23 1016.31 1016.39 1016.39 1016.39 1016.27 1016.23 1016.23 1016.23 1016.27 1016.35 1016.47 1016.67 1016.79 1016.91 1017.03
1021.07 1020.83 1020.63 1020.55 1020.51 1020.39 1020.39 1020.51 1020.51 1020.59 1020.71 1020.83 1020.83 1020.95 1021.03 1021.19 1021.27 1021.27 1021.11 1020.95 1020.91 1020.83 1020.79 1020.71 1020.55 1020.51 1020.39 1020.23 1020.07 1019.87 1019.63 1019.43 1019.31 1018.99 1018.75 1018.59 1018.23 1017.95 1017.63 1017.43 1017.23 1016.95 1016.75 1016.47 1016.19 1015.95 1015.83 1015.67 1015.59 1015.67 1015.71 1015.67 1015.87 1015.95 1016.11 1016.03 1016.03 1016.07 1016.07 1016.03 1016.07 1016.15 1016.15 1016.11 1016.11 1016.11 1016.15 1016.19 1016.23 1016.31 1016.43 1016.63 1016.79 1016.95
1020.67 1020.43 1020.15 1019.91 1019.95 1020.03 1020.11 1020.11 1020.11 1020.11 1020.15 1020.23 1020.31 1020.31 1020.51 1020.71 1020.83 1020.91 1020.91 1020.79 1020.71 1020.63 1020.55 1020.43 1020.35 1020.31 1020.19 1020.11 1020.11 1020.03 1019.71 1019.39 1019.15 1019.07 1019.15 1018.99 1018.71 1018.27 1017.91 1017.31 1016.87 1016.67 1016.31 1016.03 1015.83 1015.55 1015.39 1015.39 1015.27 1015.15 1015.11 1015.07 1015.31 1015.35 1015.47 1015.51 1015.55 1015.67 1015.87 1015.95 1015.91 1015.91 1015.95 1015.99 1015.95 1015.95 1015.99 1016.07 1016.11 1016.19 1016.27 1016.43 1016.59 1016.75
1019.91 1019.79 1019.67 1019.55 1019.43 1019.59 1019.67 1019.67 1019.55 1019.51 1019.51 1019.55 1019.67 1019.91 1020.03 1020.15 1020.31 1020.47 1020.59 1020.59 1020.47 1020.43 1020.27 1020.07 1020.03 1019.99 1019.99 1019.95 1019.87 1019.83 1019.71 1019.63 1019.59 1019.43 1019.11 1018.79 1018.39 1018.47 1018.31 1017.91 1016.75 1016.07 1016.03 1015.83 1015.51 1015.07 1014.83 1014.87 1014.95 1014.87 1014.79 1014.75 1014.79 1014.91 1014.83 1014.95 1015.23 1015.39 1015.55 1015.71 1015.83 1015.83 1015.83 1015.87 1015.87 1015.83 1015.83 1015.87 1015.95 1016.03 1016.11 1016.27 1016.43 1016.55
1019.19 1018.99 1018.87 1018.79 1018.75 1018.83 1018.87 1018.87 1018.95 1018.95 1018.95 1018.99 1019.03 1019.15 1019.35 1019.59 1019.71 1019.79 1019.91 1020.07 1020.19 1020.19 1020.07 1019.75 1019.59 1019.59 1019.55 1019.55 1019.59 1019.51 1019.55 1019.47 1019.43 1019.43 1019.39 1019.23 1018.99 1018.71 1018.39 1017.99 1017.35 1016.59 1016.03 1016.07 1015.83 1015.51 1014.75 1014.55 1014.67 1014.51 1014.43 1014.39 1014.43 1014.51 1014.55 1014.75 1014.99 1015.19 1015.35 1015.47 1015.63 1015.71 1015.75 1015.75 1015.75 1015.71 1015.67 1015.71 1015.75 1015.83 1015.95 1016.07 1016.27 1016.47
1018.31 1018.15 1017.99 1017.91 1017.95 1017.99 1018.11 1018.31 1018.39 1018.47 1018.47 1018.47 1018.51 1018.59 1018.71 1018.75 1018.87 1019.03 1019.15 1019.19 1019.23 1019.31 1019.47 1019.31 1019.11 1019.03 1018.95 1019.15 1019.07 1019.07 1019.15 1019.19 1019.31 1019.19 1019.11 1019.03 1018.87 1018.55 1018.19 1017.55 1016.91 1016.27 1016.51 1016.31 1016.27 1016.15 1015.39 1014.95 1014.79 1014.63 1014.31 1014.15 1014.19 1014.27 1014.47 1014.63 1014.75 1014.91 1015.11 1015.27 1015.39 1015.51 1015.55 1015.63 1015.59 1015.55 1015.51 1015.47 1015.47 1015.55 1015.71 1015.91 1016.07 1016.23
1017.31 1017.27 1017.19 1017.07 1017.07 1017.15 1017.39 1017.59 1017.83 1017.99 1018.07 1018.07 1018.15 1018.23 1018.31 1018.35 1018.31 1018.27 1018.19 1018.27 1018.51 1018.63 1018.71 1018.67 1018.59 1018.39 1018.55 1018.47 1018.39 1018.63 1018.91 1019.19 1019.27 1019.11 1018.99 1018.79 1018.75 1018.55 1018.23 1017.63 1017.23 1016.63 1016.43 1016.75 1016.43 1015.71 1015.11 1015.07 1014.99 1014.63 1014.31 1014.23 1014.15 1014.11 1014.11 1014.27 1014.39 1014.59 1014.83 1015.03 1015.15 1015.23 1015.27 1015.35 1015.35 1015.31 1015.23 1015.19 1015.19 1015.27 1015.43 1015.63 1015.83 1015.99
1016.23 1016.19 1016.23 1016.27 1016.27 1016.35 1016.67 1016.83 1017.07 1017.35 1017.55 1017.75 1017.87 1017.95 1017.95 1017.95 1017.95 1017.91 1017.91 1017.83 1017.71 1017.75 1017.99 1018.15 1018.03 1018.03 1018.11 1018.11 1018.19 1018.39 1018.55 1018.71 1018.71 1018.71 1018.63 1018.51 1018.39 1018.15 1017.87 1017.47 1017.15 1016.71 1016.47 1016.35 1016.23 1016.59 1015.47 1014.59 1014.63 1014.43 1014.11 1013.91 1013.79 1013.75 1013.87 1013.95 1014.11 1014.27 1014.43 1014.67 1014.83 1014.95 1015.03 1015.03 1015.03 1014.99 1014.95 1014.91 1014.87 1014.95 1015.07 1015.31 1015.55 1015.75
1015.55 1015.47 1015.39 1015.35 1015.55 1015.63 1015.83 1015.99 1016.23 1016.63 1017.03 1017.35 1017.59 1017.75 1017.83 1017.83 1017.75 1017.67 1017.43 1017.27 1017.23 1017.27 1017.31 1017.39 1017.51 1017.63 1017.71 1017.71 1017.83 1017.95 1018.07 1018.15 1018.31 1018.43 1018.39 1018.39 1018.31 1018.31 1018.15 1017.63 1016.63 1016.39 1015.83 1015.91 1016.03 1015.99 1015.07 1014.63 1014.11 1013.83 1013.47 1013.43 1013.35 1013.31 1013.39 1013.51 1013.71 1013.87 1014.07 1014.27 1014.47 1014.59 1014.67 1014.67 1014.67 1014.67 1014.63 1014.59 1014.55 1014.55 1014.71 1014.91 1015.23 1015.51
1015.03 1014.95 1014.87 1014.87 1014.95 1015.11 1015.31 1015.39 1015.63 1015.87 1016.35 1016.75 1017.07 1017.27 1017.47 1017.51 1017.55 1017.35 1017.15 1016.99 1016.87 1016.75 1016.75 1016.75 1016.87 1016.95 1017.07 1017.15 1017.19 1017.23 1017.35 1017.59 1017.87 1017.99 1018.07 1017.91 1017.87 1018.03 1017.91 1017.15 1016.59 1016.07 1015.47 1015.31 1015.51 1015.51 1015.03 1014.23 1014.07 1013.87 1013.51 1013.27 1013.27 1013.11 1013.07 1013.03 1013.19 1013.43 1013.63 1013.87 1014.03 1014.15 1014.23 1014.27 1014.27 1014.23 1014.23 1014.23 1014.23 1014.31 1014.39 1014.59 1014.83 1015.19
1014.55 1014.39 1014.35 1014.43 1014.63 1014.79 1014.91 1014.95 1015.11 1015.23 1015.59 1016.19 1016.39 1016.67 1016.83 1017.03 1017.07 1016.79 1016.63 1016.67 1016.51 1016.35 1016.27 1016.23 1016.19 1016.19 1016.23 1016.31 1016.39 1016.51 1016.63 1016.79 1017.11 1017.63 1017.59 1017.11 1017.35 1017.55 1017.27 1016.95 1016.27 1015.51 1015.15 1015.03 1014.99 1015.31 1015.07 1014.11 1013.75 1013.63 1013.35 1012.99 1012.95 1013.11 1012.95 1012.83 1012.83 1013.11 1013.35 1013.51 1013.63 1013.79 1013.87 1013.91 1013.91 1013.91 1013.95 1013.95 1014.03 1014.11 1014.23 1014.43 1014.71 1014.99
1014.03 1013.87 1013.87 1013.91 1014.07 1014.35 1014.43 1014.47 1014.55 1014.63 1014.83 1015.35 1015.79 1015.83 1016.03 1016.19 1016.31 1015.87 1015.83 1015.99 1016.07 1016.15 1016.19 1016.11 1016.11 1015.99 1015.91 1015.87 1015.95 1015.95 1015.95 1016.07 1016.27 1016.63 1016.71 1016.71 1016.99 1016.79 1016.51 1016.27 1015.95 1015.71 1014.99 1014.47 1014.47 1015.07 1014.35 1014.03 1013.87 1013.59 1013.39 1013.55 1013.23 1012.67 1012.71 1012.75 1012.79 1012.79 1012.91 1013.07 1013.31 1013.47 1013.59 1013.63 1013.67 1013.67 1013.67 1013.67 1013.75 1013.87 1014.03 1014.27 1014.63 1014.79
1013.47 1013.35 1013.35 1013.39 1013.51 1013.71 1013.91 1014.03 1014.03 1013.95 1014.03 1014.27 1014.67 1014.99 1015.23 1015.35 1015.19 1014.83 1015.07 1015.11 1015.27 1015.39 1015.47 1015.51 1015.63 1015.63 1015.63 1015.67 1015.67 1015.63 1015.59 1015.59 1015.71 1015.83 1015.95 1016.15 1016.31 1016.23 1015.95 1015.63 1015.43 1015.31 1014.47 1013.87 1013.91 1014.43 1013.87 1013.59 1013.47 1013.27 1013.55 1013.19 1012.79 1012.99 1012.95 1012.87 1012.91 1012.87 1012.91 1012.99 1013.03 1013.15 1013.39 1013.47 1013.47 1013.43 1013.39 1013.39 1013.43 1013.63 1013.79 1014.03 1014.35 1014.55
1012.99 1012.79 1012.75 1012.75 1012.91 1013.11 1013.31 1013.47 1013.51 1013.51 1013.55 1013.59 1013.71 1014.15 1014.35 1014.31 1014.03 1014.15 1014.31 1014.35 1014.63 1014.79 1014.87 1015.03 1015.23 1015.23 1015.23 1015.23 1015.19 1015.15 1015.15 1015.15 1015.19 1015.27 1015.27 1015.23 1015.31 1015.35 1015.19 1014.95 1014.79 1014.59 1014.15 1013.91 1014.07 1014.15 1013.99 1013.67 1013.59 1013.15 1013.31 1013.19 1012.99 1012.71 1013.35 1012.83 1012.79 1012.99 1012.99 1012.95 1012.99 1013.03 1013.11 1013.19 1013.23 1013.19 1013.31 1013.39 1013.39 1013.43 1013.59 1013.83 1014.11 1014.35
1012.43 1012.31 1012.27 1012.27 1012.35 1012.59 1012.75 1012.87 1012.99 1013.11 1013.23 1013.19 1013.23 1013.15 1013.27 1013.43 1013.47 1013.47 1013.55 1013.67 1013.87 1014.07 1014.19 1014.27 1014.39 1014.47 1014.59 1014.55 1014.59 1014.59 1014.55 1014.51 1014.55 1014.67 1014.67 1014.67 1014.75 1014.71 1014.59 1014.51 1014.47 1014.35 1014.07 1013.71 1013.67 1013.79 1013.67 1013.47 1013.39 1013.39 1013.35 1013.11 1012.83 1012.71 1012.91 1013.19 1012.91 1012.99 1013.03 1013.07 1012.99 1012.95 1012.99 1013.11 1013.15 1013.19 1013.11 1013.15 1013.27 1013.47 1013.63 1013.79 1014.03 1014.23
1011.95 1011.87 1011.87 1011.91 1012.03 1012.19 1012.31 1012.39 1012.55 1012.79 1012.83 1012.87 1012.79 1012.79 1012.95 1012.99 1013.15 1013.31 1013.27 1013.15 1013.27 1013.43 1013.51 1013.59 1013.59 1013.67 1013.79 1013.87 1013.91 1013.87 1013.87 1013.79 1013.91 1013.99 1014.03 1014.11 1014.23 1014.23 1014.15 1014.07 1014.07 1014.03 1013.91 1013.75 1013.67 1013.63 1013.59 1013.23 1012.91 1013.27 1013.31 1013.11 1013.07 1012.67 1012.79 1012.79 1013.03 1012.99 1013.15 1013.19 1013.27 1013.31 1013.27 1013.15 1013.15 1013.27 1013.27 1013.35 1013.39 1013.51 1013.67 1013.83 1013.99 1014.11
1011.63 1011.51 1011.51 1011.51 1011.67 1011.79 1011.91 1012.07 1012.27 1012.39 1012.35 1012.39 1012.43 1012.63 1012.71 1012.91 1013.19 1013.23 1013.07 1012.99 1012.87 1012.91 1013.03 1013.03 1013.03 1012.99 1013.03 1013.15 1013.19 1013.07 1012.99 1012.99 1013.07 1013.31 1013.47 1013.51 1013.63 1013.67 1013.67 1013.67 1013.75 1013.75 1013.79 1013.75 1013.59 1013.55 1013.55 1013.47 1013.15 1012.99 1013.11 1013.31 1013.39 1013.11 1013.03 1012.47 1012.47 1012.83 1013.19 1012.83 1013.07 1013.19 1013.23 1013.27 1013.27 1013.15 1013.19 1013.23 1013.31 1013.51 1013.71 1013.87 1013.99 1014.19
1011.31 1011.19 1011.19 1011.27 1011.35 1011.47 1011.67 1011.87 1011.99 1012.03 1012.31 1012.55 1012.59 1012.67 1012.83 1013.07 1013.07 1012.91 1012.79 1012.59 1012.47 1012.39 1012.39 1012.47 1012.51 1012.47 1012.43 1012.39 1012.35 1012.39 1012.47 1012.55 1012.63 1012.67 1012.83 1012.99 1013.11 1013.19 1013.31 1013.39 1013.47 1013.51 1013.63 1013.55 1013.51 1013.43 1013.35 1013.27 1013.19 1013.07 1013.11 1013.15 1013.23 1013.07 1012.71 1012.83 1012.71 1012.83 1012.95 1012.91 1013.03 1012.95 1013.03 1013.15 1013.15 1013.11 1013.19 1013.11 1013.23 1013.31 1013.47 1013.67 1013.75 1013.87
1011.03 1010.91 1010.87 1010.99 1011.19 1011.27 1011.47 1011.63 1011.83 1012.19 1012.35 1012.47 1012.59 1012.71 1012.95 1013.07 1012.95 1012.83 1012.67 1012.63 1012.51 1012.23 1011.91 1011.75 1011.71 1011.75 1011.87 1011.83 1011.75 1011.91 1012.07 1012.19 1012.15 1012.19 1012.27 1012.39 1012.59 1012.91 1013.07 1013.19 1013.11 1013.15 1013.23 1013.19 1013.23 1013.19 1013.11 1013.07 1013.07 1013.11 1013.15 1013.07 1013.07 1012.95 1012.75 1012.59 1012.63 1012.75 1012.63 1012.95 1012.99 1012.47 1012.71 1012.79 1012.91 1012.99 1013.03 1013.23 1013.31 1013.35 1013.39 1013.43 1013.59 1013.63
1010.59 1010.51 1010.55 1010.59 1010.83 1010.95 1011.15 1011.55 1011.87 1012.11 1012.39 1012.43 1012.39 1012.51 1012.71 1012.75 1012.67 1012.63 1012.67 1012.59 1012.47 1012.27 1012.03 1011.71 1011.51 1011.23 1011.07 1011.19 1011.47 1011.59 1011.67 1011.75 1011.75 1011.79 1011.87 1011.95 1012.03 1012.39 1012.55 1012.63 1012.47 1012.35 1012.47 1012.75 1012.83 1012.79 1012.79 1012.79 1012.87 1013.03 1013.15 1013.03 1012.99 1012.91 1012.75 1012.67 1012.75 1012.59 1012.51 1012.55 1012.63 1013.11 1012.67 1012.63 1012.83 1012.83 1012.99 1013.03 1013.11 1013.27 1013.39 1013.51 1013.63 1013.75
1010.27 1010.15 1010.07 1010.27 1010.51 1010.91 1011.39 1011.63 1011.91 1011.95 1011.95 1012.07 1012.27 1012.43 1012.51 1012.51 1012.51 1012.59 1012.59 1012.59 1012.51 1012.31 1012.11 1011.95 1011.75 1011.59 1011.43 1011.23 1011.07 1010.99 1011.11 1011.19 1011.19 1011.27 1011.39 1011.47 1011.63 1011.75 1012.07 1012.31 1012.15 1012.03 1011.95 1012.11 1012.39 1012.43 1012.51 1012.55 1012.63 1012.75 1012.87 1012.87 1012.87 1012.67 1012.67 1012.75 1012.67 1012.51 1012.39 1012.23 1012.39 1012.51 1012.27 1012.59 1012.67 1012.67 1012.87 1012.95 1012.99 1013.23 1013.39 1013.43 1013.55 1013.59
1010.31 1010.43 1010.27 1010.19 1010.55 1010.87 1011.03 1011.27 1011.31 1011.47 1011.67 1011.87 1012.11 1012.51 1012.59 1012.35 1012.35 1012.43 1012.39 1012.35 1012.19 1012.03 1012.03 1011.99 1011.87 1011.75 1011.59 1011.43 1011.23 1011.03 1010.91 1010.83 1010.87 1010.87 1010.99 1011.03 1011.23 1011.23 1011.47 1011.67 1011.67 1011.63 1011.63 1011.59 1011.79 1011.99 1012.19 1012.31 1012.47 1012.59 1012.67 1012.75 1012.71 1012.63 1012.67 1012.71 1012.63 1012.47 1012.39 1012.23 1012.31 1012.39 1012.19 1012.15 1012.27 1012.43 1012.79 1012.91 1013.07 1012.87 1013.15 1013.43 1013.59 1013.63
1010.15 1010.19 1010.15 1010.07 1010.23 1010.47 1010.67 1010.79 1010.91 1011.03 1011.27 1011.51 1011.75 1011.95 1012.19 1012.15 1012.07 1012.07 1012.07 1012.03 1011.99 1012.07 1012.11 1012.03 1011.95 1011.87 1011.71 1011.59 1011.39 1011.15 1010.91 1010.63 1010.55 1010.47 1010.59 1010.63 1010.75 1010.91 1010.91 1011.19 1011.15 1011.07 1011.07 1011.03 1011.19 1011.51 1011.87 1012.23 1012.47 1012.67 1012.83 1012.91 1012.91 1012.79 1012.71 1012.59 1012.47 1012.27 1012.23 1012.11 1011.95 1012.11 1011.95 1011.91 1012.19 1012.59 1012.75 1012.83 1012.75 1012.71 1013.11 1013.31 1013.55 1013.67
1009.95 1009.71 1009.75 1009.79 1009.95 1010.11 1010.31 1010.47 1010.51 1010.59 1010.87 1011.15 1011.31 1011.59 1011.91 1011.99 1012.03 1012.07 1012.15 1012.11 1012.23 1012.35 1012.23 1012.15 1011.99 1011.83 1011.75 1011.59 1011.39 1011.23 1010.91 1010.67 1010.43 1010.27 1010.23 1010.27 1010.27 1010.35 1010.35 1010.47 1010.59 1010.67 1010.67 1010.63 1010.67 1010.95 1011.39 1011.87 1012.27 1012.51 1012.71 1012.83 1012.79 1012.59 1012.59 1012.59 1012.55 1012.31 1012.07 1011.91 1011.79 1011.91 1011.91 1012.07 1012.35 1012.63 1012.79 1012.83 1012.71 1012.91 1012.95 1013.07 1013.39 1013.67
1009.43 1009.31 1009.23 1009.27 1009.51 1009.75 1009.99 1010.15 1010.19 1010.35 1010.67 1010.95 1011.23 1011.55 1011.95 1011.87 1011.83 1011.91 1011.87 1012.35 1012.75 1012.51 1012.39 1012.23 1012.03 1011.87 1011.67 1011.43 1011.23 1011.07 1010.83 1010.63 1010.35 1010.15 1010.03 1009.91 1009.83 1009.79 1009.87 1009.91 1009.99 1010.07 1010.11 1010.15 1010.23 1010.43 1010.91 1011.35 1011.75 1011.91 1011.95 1012.07 1012.19 1012.15 1011.79 1011.87 1012.19 1012.31 1012.31 1011.99 1011.75 1011.87 1011.91 1012.39 1012.75 1012.75 1012.87 1012.87 1012.71 1012.75 1012.83 1012.95 1013.23 1013.51
1008.55 1008.55 1008.63 1008.71 1008.95 1009.35 1009.67 1009.83 1009.99 1010.31 1010.59 1010.83 1011.23 1011.43 1011.47 1011.51 1011.83 1012.15 1012.71 1013.11 1012.95 1012.67 1012.43 1012.27 1012.07 1011.79 1011.63 1011.43 1011.27 1011.03 1010.79 1010.55 1010.35 1010.07 1009.87 1009.63 1009.43 1009.43 1009.59 1009.51 1009.63 1009.71 1009.83 1009.79 1009.83 1009.99 1010.47 1010.87 1011.19 1011.35 1011.35 1011.39 1011.55 1011.71 1011.35 1011.51 1011.99 1011.95 1012.03 1011.91 1011.55 1011.59 1011.91 1012.39 1012.87 1012.99 1012.87 1012.71 1012.63 1012.59 1012.47 1012.15 1012.63 1013.31
1007.83 1007.83 1008.03 1008.19 1008.43 1008.83 1009.15 1009.43 1009.91 1010.43 1010.75 1010.99 1011.23 1011.59 1011.83 1011.87 1012.23 1012.75 1013.03 1012.83 1012.51 1012.23 1012.27 1012.27 1012.03 1011.87 1011.67 1011.43 1011.23 1010.95 1010.67 1010.35 1010.07 1009.83 1009.63 1009.47 1009.35 1009.23 1009.11 1009.19 1009.15 1009.27 1009.35 1009.47 1009.55 1009.63 1009.95 1010.27 1010.55 1010.75 1010.79 1010.79 1011.07 1011.19 1011.19 1011.11 1011.75 1011.71 1011.79 1011.83 1011.47 1011.35 1011.83 1012.27 1012.59 1012.67 1012.91 1013.03 1012.79 1012.67 1012.55 1012.51 1012.79 1013.11
1007.03 1007.27 1007.59 1007.87 1008.19 1008.51 1008.99 1009.51 1009.99 1010.31 1010.79 1011.11 1011.35 1011.47 1011.71 1012.07 1012.27 1012.39 1012.35 1012.27 1012.31 1012.27 1012.03 1011.91 1011.87 1011.79 1011.63 1011.47 1011.27 1010.99 1010.67 1010.35 1009.99 1009.63 1009.35 1009.19 1009.03 1008.91 1008.75 1008.83 1008.99 1009.03 1008.99 1009.07 1009.23 1009.35 1009.59 1009.83 1009.99 1010.23 1010.27 1010.15 1010.27 1010.23 1010.19 1010.39 1010.87 1010.51 1011.35 1011.71 1011.71 1011.51 1011.75 1011.87 1011.99 1011.99 1012.31 1012.87 1013.11 1013.11 1013.11 1013.19 1013.31 1013.59
1006.71 1006.95 1007.27 1007.55 1008.07 1008.55 1009.11 1009.75 1010.15 1010.43 1010.95 1011.11 1011.23 1011.47 1011.75 1011.79 1011.87 1011.95 1012.03 1012.15 1012.23 1012.31 1012.19 1011.99 1011.83 1011.91 1011.75 1011.51 1011.31 1011.03 1010.79 1010.59 1010.31 1009.83 1009.19 1008.79 1008.71 1008.75 1008.71 1008.55 1008.47 1008.39 1008.55 1008.75 1008.95 1008.99 1009.11 1009.35 1009.47 1009.67 1009.75 1009.55 1009.55 1009.67 1009.71 1009.99 1010.67 1011.19 1011.47 1011.71 1011.79 1011.71 1011.51 1011.55 1011.59 1011.63 1011.91 1012.15 1012.59 1012.83 1012.95 1013.07 1013.27 1013.31
1007.27 1007.39 1007.79 1007.99 1008.51 1009.15 1009.71 1010.15 1010.43 1010.79 1011.03 1011.43 1011.71 1011.99 1011.99 1011.99 1012.03 1011.91 1011.95 1012.07 1012.23 1012.27 1012.07 1011.91 1011.95 1011.99 1011.75 1011.63 1011.47 1011.15 1010.75 1010.27 1009.87 1009.55 1009.19 1008.83 1008.79 1008.71 1008.55 1008.39 1008.19 1008.23 1008.35 1008.55 1008.47 1008.51 1008.67 1008.63 1008.75 1009.07 1009.35 1009.43 1009.71 1009.91 1010.11 1010.47 1010.51 1010.87 1011.27 1011.51 1011.79 1011.87 1011.95 1011.99 1011.75 1011.59 1011.67 1012.15 1012.31 1012.23 1012.27 1012.47 1012.51 1012.71
1007.47 1008.11 1008.71 1008.91 1009.27 1009.75 1010.11 1010.47 1010.79 1011.03 1011.27 1011.51 1011.67 1011.83 1012.07 1012.15 1012.03 1012.19 1012.31 1012.63 1012.79 1012.75 1012.43 1012.07 1011.91 1011.87 1011.79 1011.67 1011.47 1011.15 1010.79 1010.27 1009.79 1009.39 1008.95 1008.67 1008.39 1008.35 1008.35 1008.31 1008.07 1007.91 1008.19 1008.11 1008.07 1007.91 1008.07 1008.63 1008.95 1009.15 1009.31 1009.59 1009.79 1009.83 1009.95 1009.83 1009.91 1010.23 1011.07 1011.39 1011.67 1011.83 1011.95 1011.99 1012.11 1012.11 1012.11 1012.23 1012.15 1012.15 1012.47 1012.83 1012.87 1012.67
1008.07 1008.43 1009.03 1009.55 1009.99 1010.27 1010.51 1010.83 1011.11 1011.19 1011.31 1011.51 1011.63 1011.79 1011.87 1011.91 1011.95 1012.19 1012.07 1012.15 1012.31 1012.23 1012.03 1011.99 1011.95 1011.87 1011.67 1011.47 1011.27 1011.07 1010.67 1010.19 1009.79 1009.47 1009.15 1008.71 1008.15 1007.83 1007.87 1007.83 1007.79 1007.63 1007.71 1007.59 1007.55 1008.03 1008.75 1008.87 1008.99 1009.15 1009.35 1009.55 1009.55 1009.55 1009.55 1009.43 1009.47 1010.47 1011.31 1011.51 1011.63 1011.79 1011.95 1012.07 1012.15 1012.27 1012.39 1012.51 1012.59 1012.59 1012.35 1012.03 1011.79 1011.95
1008.63 1008.99 1009.51 1009.99 1010.35 1010.71 1010.91 1011.15 1011.31 1011.39 1011.47 1011.55 1011.71 1011.91 1011.75 1011.67 1011.83 1011.99 1011.99 1012.03 1012.07 1012.07 1012.23 1012.15 1012.03 1011.91 1011.75 1011.51 1011.23 1010.87 1010.43 1009.95 1009.59 1009.39 1009.07 1008.67 1008.03 1007.51 1007.35 1007.31 1007.43 1007.43 1007.35 1007.51 1008.15 1008.51 1008.87 1009.11 1009.15 1009.15 1009.35 1009.35 1009.31 1009.35 1009.35 1009.27 1009.83 1010.43 1010.99 1011.31 1011.63 1011.87 1012.03 1012.19 1012.35 1012.43 1012.51 1012.63 1012.75 1012.71 1012.71 1012.71 1012.67 1012.71
1009.07 1009.43 1009.95 1010.31 1010.63 1010.87 1011.15 1011.31 1011.47 1011.55 1011.59 1011.63 1011.67 1011.75 1011.83 1011.79 1011.79 1011.99 1012.23 1012.39 1012.35 1012.51 1012.55 1012.35 1012.19 1011.99 1011.79 1011.55 1011.15 1010.59 1010.11 1009.99 1009.79 1009.39 1009.03 1008.63 1008.07 1007.35 1007.03 1006.91 1007.03 1007.23 1007.59 1007.83 1008.27 1008.91 1009.11 1009.27 1009.43 1009.27 1009.19 1009.27 1009.23 1009.15 1009.03 1009.31 1009.91 1010.67 1011.11 1011.47 1011.63 1011.79 1012.07 1012.23 1012.31 1012.43 1012.63 1012.95 1013.15 1013.11 1012.95 1012.87 1012.83 1012.79
Thickness
5202 5200 5198 5197 5198 5197 5197 5198 5197 5197 5197 5197 5197 5197 5197 5197 5198 5201 5206 5213 5220 5226 5233 5241 5250 5257 5261 5266 5271 5276 5281 5288 5294 5300 5305 5310 5315 5321 5327 5333 5339 5346 5353 5360 5367 5374 5382 5391 5399 5409 5419 5427 5434 5441 5447 5453 5458 5463 5468 5472 5475 5477 5484 5493 5500 5504 5508 5513 5515 5517 5521 5526 5530 5533
5199 5197 5195 5194 5194 5194 5194 5195 5194 5194 5194 5193 5193 5194 5194 5194 5195 5196 5198 5204 5211 5216 5222 5230 5238 5247 5253 5257 5263 5268 5273 5280 5285 5291 5297 5302 5308 5312 5318 5326 5332 5338 5345 5352 5358 5365 5372 5381 5389 5398 5407 5416 5423 5430 5438 5444 5449 5453 5458 5463 5466 5467 5473 5481 5488 5494 5499 5503 5506 5507 5512 5516 5519 5522
5195 5193 5191 5190 5190 5190 5191 5191 5190 5190 5189 5190 5189 5190 5190 5189 5190 5191 5191 5195 5201 5205 5211 5218 5225 5233 5240 5247 5253 5258 5264 5270 5275 5281 5288 5294 5300 5305 5310 5317 5325 5331 5339 5344 5350 5356 5363 5371 5380 5388 5397 5404 5412 5422 5430 5436 5439 5443 5448 5454 5458 5460 5464 5470 5476 5483 5489 5494 5496 5498 5502 5506 5509 5513
5190 5188 5186 5185 5185 5185 5186 5186 5187 5186 5186 5186 5185 5185 5186 5185 5185 5185 5185 5188 5192 5196 5200 5207 5212 5218 5226 5235 5242 5248 5254 5260 5267 5273 5280 5286 5292 5298 5304 5311 5318 5325 5332 5338 5342 5348 5355 5363 5371 5379 5386 5394 5402 5412 5420 5425 5428 5432 5439 5446 5451 5455 5458 5462 5466 5472 5479 5484 5487 5490 5493 5496 5500 5504
5185 5183 5181 5180 5180 5179 5180 5181 5182 5183 5183 5182 5182 5182 5182 5182 5182 5181 5180 5182 5185 5189 5192 5197 5202 5206 5213 5222 5230 5237 5244 5252 5259 5265 5271 5278 5285 5292 5299 5305 5312 5318 5324 5331 5336 5341 5347 5355 5362 5369 5376 5384 5393 5402 5410 5414 5418 5423 5430 5436 5442 5447 5452 5456 5459 5463 5468 5474 5478 5481 5485 5488 5492 5495
5180 5179 5177 5176 5176 5174 5174 5174 5175 5176 5177 5178 5178 5178 5178 5178 5179 5178 5177 5177 5178 5182 5185 5189 5194 5198 5202 5209 5218 5226 5234 5242 5249 5256 5263 5270 5278 5285 5292 5299 5306 5311 5317 5323 5330 5335 5341 5348 5355 5362 5368 5376 5384 5392 5399 5404 5408 5414 5421 5426 5432 5438 5444 5448 5453 5457 5462 5466 5470 5474 5477 5481 5484 5486
5176 5175 5174 5173 5172 5171 5170 5168 5169 5170 5171 5173 5173 5174 5174 5175 5175 5175 5174 5174 5173 5174 5177 5180 5184 5189 5193 5199 5206 5214 5222 5230 5238 5247 5255 5262 5270 5278 5285 5292 5299 5304 5309 5315 5322 5329 5336 5342 5348 5355 5362 5368 5375 5382 5389 5395 5401 5406 5411 5416 5423 5429 5434 5439 5444 5451 5455 5460 5465 5468 5470 5473 5476 5478
5172 5171 5170 5170 5169 5167 5166 5165 5166 5166 5167 5167 5168 5169 5170 5171 5171 5171 5171 5170 5169 5168 5169 5172 5175 5179 5184 5190 5195 5202 5210 5219 5227 5236 5245 5253 5261 5271 5279 5285 5292 5297 5303 5308 5315 5323 5330 5336 5342 5349 5354 5361 5367 5373 5379 5385 5392 5397 5401 5406 5414 5421 5425 5430 5436 5444 5450 5455 5459 5462 5464 5467 5469 5470
5168 5168 5168 5167 5165 5163 5163 5162 5163 5164 5163 5164 5164 5164 5165 5166 5167 5168 5167 5167 5166 5164 5164 5165 5167 5170 5174 5179 5184 5190 5197 5207 5217 5226 5236 5245 5252 5261 5270 5276 5283 5289 5295 5301 5309 5317 5324 5331 5337 5342 5348 5354 5359 5365 5371 5377 5383 5389 5393 5398 5404 5412 5418 5423 5428 5435 5442 5449 5452 5454 5458 5461 5462 5463
5163 5164 5164 5164 5163 5161 5160 5160 5160 5161 5161 5160 5160 5160 5161 5161 5162 5163 5163 5163 5162 5161 5160 5159 5160 5162 5165 5169 5175 5179 5185 5194 5205 5215 5225 5236 5245 5253 5260 5268 5275 5282 5288 5296 5303 5310 5318 5325 5331 5336 5341 5346 5351 5358 5363 5369 5375 5381 5386 5390 5396 5403 5410 5416 5421 5426 5433 5439 5444 5447 5450 5454 5456 5457
5159 5160 5161 5160 5160 5159 5158 5157 5157 5157 5158 5158 5157 5156 5156 5156 5156 5157 5158 5158 5158 5157 5156 5155 5155 5156 5158 5162 5166 5171 5176 5183 5192 5201 5212 5223 5234 5243 5251 5260 5268 5275 5284 5292 5298 5304 5311 5319 5325 5330 5335 5340 5345 5350 5356 5361 5368 5374 5379 5384 5390 5396 5403 5409 5416 5421 5424 5430 5435 5439 5442 5446 5449 5452
5156 5157 5158 5158 5158 5158 5156 5156 5155 5154 5155 5154 5154 5153 5153 5152 5152 5152 5153 5154 5154 5154 5153 5152 5152 5153 5153 5156 5159 5162 5167 5174 5180 5186 5195 5209 5221 5231 5242 5253 5262 5270 5279 5286 5294 5300 5306 5311 5318 5324 5329 5334 5339 5344 5348 5354 5360 5366 5373 5378 5384 5389 5396 5402 5410 5415 5418 5421 5426 5431 5435 5439 5442 5446
5153 5155 5156 5156 5156 5156 5155 5155 5154 5154 5153 5153 5152 5152 5151 5150 5149 5149 5150 5151 5151 5151 5151 5150 5149 5149 5149 5150 5151 5154 5158 5164 5169 5174 5183 5197 5208 5218 5230 5243 5254 5262 5272 5280 5287 5293 5299 5305 5312 5318 5324 5330 5334 5338 5342 5348 5354 5359 5365 5371 5377 5382 5388 5395 5402 5408 5412 5415 5418 5423 5428 5432 5436 5439
5152 5153 5154 5155 5155 5155 5154 5154 5154 5154 5153 5153 5152 5151 5150 5149 5148 5147 5147 5148 5148 5148 5148 5148 5147 5146 5145 5145 5146 5147 5149 5153 5158 5164 5173 5184 5192 5203 5216 5231 5244 5254 5262 5270 5278 5285 5292 5298 5304 5311 5318 5324 5328 5332 5338 5344 5350 5354 5358 5362 5369 5375 5381 5387 5392 5399 5405 5409 5413 5416 5420 5424 5429 5433
5151 5152 5153 5154 5154 5154 5153 5153 5153 5154 5154 5153 5152 5151 5149 5148 5147 5146 5145 5145 5145 5146 5146 5146 5145 5144 5143 5142 5142 5143 5143 5144 5147 5151 5159 5169 5178 5188 5201 5216 5231 5240 5248 5256 5265 5275 5283 5289 5296 5303 5310 5317 5321 5327 5334 5340 5345 5348 5352 5355 5360 5365 5372 5378 5384 5391 5396 5402 5407 5410 5414 5417 5421 5426
5151 5153 5154 5154 5154 5154 5154 5154 5154 5153 5154 5153 5153 5152 5150 5149 5147 5146 5146 5145 5144 5144 5144 5145 5145 5144 5143 5141 5140 5139 5138 5139 5139 5141 5146 5154 5163 5172 5185 5200 5212 5221 5231 5241 5249 5260 5272 5282 5290 5296 5303 5309 5316 5322 5329 5333 5337 5342 5346 5349 5352 5357 5362 5368 5375 5382 5388 5394 5400 5405 5408 5410 5413 5416
5152 5153 5155 5155 5155 5155 5154 5154 5153 5153 5153 5153 5153 5152 5150 5150 5149 5148 5147 5146 5145 5144 5143 5143 5145 5145 5143 5141 5139 5137 5135 5134 5133 5134 5137 5142 5147 5157 5170 5182 5193 5202 5212 5223 5233 5247 5261 5271 5280 5289 5297 5303 5309 5316 5322 5327 5330 5335 5339 5342 5346 5350 5354 5359 5365 5372 5380 5386 5392 5397 5402 5404 5406 5410
5154 5154 5156 5156 5156 5156 5154 5154 5153 5152 5152 5152 5151 5151 5150 5149 5149 5148 5148 5148 5146 5145 5144 5144 5145 5144 5143 5141 5139 5137 5133 5130 5129 5129 5132 5134 5139 5147 5155 5165 5177 5188 5199 5210 5222 5237 5251 5260 5269 5280 5289 5295 5301 5307 5313 5318 5323 5327 5331 5334 5338 5343 5347 5352 5357 5363 5370 5378 5384 5389 5393 5396 5400 5403
5155 5156 5157 5157 5157 5156 5155 5154 5154 5152 5151 5151 5149 5149 5149 5148 5147 5147 5147 5147 5147 5146 5145 5144 5144 5143 5142 5141 5138 5135 5132 5129 5127 5126 5127 5129 5132 5138 5145 5154 5165 5176 5188 5199 5210 5224 5239 5249 5257 5269 5279 5286 5291 5298 5303 5309 5314 5319 5322 5326 5331 5335 5340 5346 5351 5355 5362 5369 5376 5380 5384 5388 5391 5396
5154 5156 5158 5158 5157 5157 5155 5155 5154 5153 5151 5148 5147 5147 5146 5146 5145 5145 5146 5146 5146 5146 5145 5144 5144 5142 5141 5140 5138 5136 5133 5129 5126 5124 5123 5125 5127 5130 5136 5145 5156 5166 5178 5188 5197 5210 5225 5235 5245 5259 5269 5274 5282 5290 5295 5300 5306 5310 5315 5319 5323 5328 5333 5339 5344 5349 5354 5360 5367 5373 5377 5381 5383 5387
5153 5155 5156 5157 5157 5155 5155 5154 5154 5153 5151 5148 5147 5146 5145 5143 5143 5144 5145 5145 5145 5145 5145 5145 5144 5143 5142 5140 5139 5137 5135 5131 5128 5124 5122 5124 5124 5125 5130 5138 5148 5158 5169 5179 5189 5200 5212 5223 5234 5247 5256 5263 5273 5281 5286 5293 5298 5303 5307 5312 5316 5321 5326 5332 5337 5342 5347 5353 5359 5365 5370 5373 5375 5377
5150 5153 5155 5156 5155 5154 5154 5154 5153 5152 5150 5148 5146 5146 5145 5143 5143 5145 5146 5145 5145 5145 5145 5145 5145 5144 5144 5143 5140 5139 5137 5135 5131 5125 5125 5125 5124 5124 5128 5134 5142 5152 5162 5173 5182 5191 5203 5213 5222 5233 5243 5252 5261 5269 5276 5284 5289 5293 5298 5304 5309 5314 5318 5323 5329 5334 5340 5345 5350 5356 5361 5364 5366 5368
5148 5151 5153 5155 5154 5153 5153 5152 5152 5152 5151 5148 5147 5147 5146 5144 5145 5148 5148 5145 5145 5144 5144 5144 5144 5144 5144 5143 5142 5141 5139 5138 5134 5131 5129 5128 5125 5126 5128 5133 5138 5146 5156 5168 5174 5182 5194 5202 5211 5221 5229 5237 5248 5257 5265 5273 5279 5284 5290 5296 5301 5305 5310 5314 5320 5325 5332 5337 5342 5347 5351 5354 5356 5358
5145 5149 5152 5153 5154 5153 5152 5152 5151 5152 5152 5150 5149 5148 5147 5147 5149 5152 5150 5148 5147 5146 5145 5144 5144 5144 5144 5143 5142 5141 5141 5140 5137 5135 5134 5132 5129 5129 5131 5135 5139 5144 5152 5161 5166 5174 5183 5190 5198 5209 5215 5223 5235 5244 5250 5260 5268 5274 5280 5285 5290 5295 5300 5304 5310 5316 5322 5328 5332 5337 5340 5343 5346 5349
5143 5147 5150 5152 5153 5152 5152 5151 5151 5151 5152 5151 5150 5150 5149 5151 5153 5153 5151 5150 5148 5147 5146 5146 5145 5144 5145 5144 5143 5142 5142 5142 5140 5138 5138 5137 5135 5134 5135 5137 5140 5144 5151 5157 5161 5166 5173 5178 5187 5197 5203 5212 5224 5230 5236 5247 5255 5261 5268 5275 5280 5285 5289 5295 5300 5306 5311 5316 5321 5326 5330 5333 5336 5339
5142 5145 5147 5149 5151 5151 5151 5151 5151 5150 5151 5150 5151 5152 5152 5153 5154 5153 5153 5152 5150 5148 5148 5148 5147 5147 5147 5146 5146 5145 5144 5145 5144 5142 5142 5142 5140 5140 5140 5140 5142 5144 5149 5154 5157 5161 5166 5172 5180 5187 5193 5202 5212 5218 5223 5233 5242 5249 5257 5264 5268 5274 5279 5285 5289 5295 5300 5305 5310 5315 5318 5322 5324 5327
5140 5142 5144 5147 5148 5149 5150 5150 5150 5150 5150 5151 5151 5151 5151 5152 5152 5151 5152 5153 5152 5151 5150 5149 5150 5150 5149 5148 5148 5148 5149 5149 5148 5146 5146 5146 5144 5143 5144 5144 5144 5145 5147 5151 5155 5158 5162 5168 5175 5180 5185 5192 5200 5206 5213 5222 5231 5238 5244 5251 5257 5261 5267 5273 5278 5283 5288 5293 5298 5302 5305 5308 5312 5316
5137 5140 5142 5144 5146 5146 5148 5148 5148 5149 5149 5150 5150 5149 5149 5148 5148 5149 5151 5152 5152 5152 5151 5151 5151 5151 5151 5151 5151 5151 5152 5153 5152 5151 5149 5149 5148 5148 5147 5147 5147 5147 5148 5149 5152 5155 5159 5164 5169 5174 5178 5182 5188 5195 5204 5213 5219 5224 5231 5239 5245 5249 5255 5261 5266 5271 5276 5281 5285 5289 5293 5297 5301 5305
5134 5138 5139 5141 5142 5144 5145 5145 5146 5146 5147 5146 5147 5147 5146 5144 5145 5147 5149 5151 5153 5153 5153 5153 5153 5153 5153 5154 5154 5154 5154 5154 5154 5154 5152 5152 5151 5150 5149 5149 5149 5149 5150 5151 5153 5154 5157 5160 5164 5167 5171 5175 5179 5187 5195 5201 5206 5210 5218 5225 5232 5238 5245 5250 5254 5259 5264 5269 5273 5278 5282 5286 5289 5294
5130 5134 5136 5137 5139 5141 5142 5142 5143 5142 5143 5143 5143 5143 5142 5142 5143 5145 5147 5148 5150 5152 5154 5155 5155 5155 5155 5155 5155 5155 5154 5154 5155 5155 5155 5154 5154 5152 5151 5151 5151 5152 5153 5153 5154 5156 5157 5159 5161 5162 5165 5169 5173 5179 5184 5189 5193 5199 5205 5211 5218 5225 5232 5238 5243 5248 5252 5256 5261 5266 5270 5275 5279 5283
5128 5132 5134 5135 5136 5138 5139 5138 5138 5138 5139 5140 5141 5141 5140 5141 5142 5142 5144 5145 5146 5149 5151 5153 5155 5156 5156 5156 5155 5155 5155 5155 5155 5155 5156 5156 5155 5154 5153 5152 5153 5155 5155 5155 5156 5157 5158 5159 5160 5160 5161 5163 5166 5170 5174 5178 5183 5188 5194 5200 5206 5212 5220 5226 5232 5236 5241 5245 5250 5254 5258 5263 5267 5272
5124 5127 5129 5132 5134 5135 5134 5133 5134 5135 5137 5137 5138 5139 5138 5139 5140 5140 5141 5142 5143 5145 5147 5149 5151 5152 5153 5154 5155 5155 5155 5155 5155 5156 5156 5156 5156 5155 5154 5153 5154 5154 5155 5156 5156 5157 5157 5158 5158 5158 5158 5159 5161 5164 5167 5170 5174 5179 5185 5191 5196 5201 5208 5215 5220 5225 5229 5233 5237 5242 5246 5250 5255 5259
5118 5120 5123 5128 5131 5131 5131 5131 5132 5134 5135 5135 5135 5135 5135 5137 5138 5138 5139 5141 5141 5143 5144 5145 5146 5147 5149 5151 5152 5153 5155 5155 5154 5155 5155 5155 5155 5155 5154 5155 5154 5154 5155 5155 5155 5155 5155 5155 5155 5155 5155 5156 5157 5159 5162 5164 5168 5172 5176 5181 5186 5190 5197 5203 5208 5213 5216 5220 5225 5230 5234 5237 5242 5247
5114 5116 5120 5125 5128 5128 5128 5129 5131 5132 5132 5133 5133 5133 5133 5135 5136 5136 5137 5138 5139 5140 5140 5141 5142 5143 5145 5146 5148 5150 5152 5153 5154 5154 5153 5153 5154 5153 5153 5154 5154 5154 5155 5154 5154 5153 5151 5150 5150 5150 5150 5150 5152 5155 5157 5159 5162 5165 5169 5173 5177 5182 5187 5193 5196 5199 5202 5207 5213 5218 5221 5225 5229 5232
5111 5115 5119 5123 5125 5125 5126 5127 5129 5130 5130 5130 5132 5131 5130 5132 5133 5134 5135 5134 5134 5135 5136 5137 5139 5140 5141 5143 5145 5147 5149 5150 5151 5152 5152 5152 5153 5152 5153 5152 5152 5152 5153 5152 5152 5151 5148 5145 5145 5145 5146 5146 5148 5151 5154 5156 5157 5159 5162 5166 5170 5174 5177 5180 5183 5186 5189 5194 5199 5204 5207 5211 5215 5218
5111 5115 5119 5121 5122 5122 5123 5124 5125 5127 5127 5127 5127 5127 5127 5129 5130 5131 5131 5129 5128 5130 5132 5133 5135 5137 5138 5141 5143 5144 5146 5147 5149 5150 5150 5151 5151 5151 5150 5151 5150 5149 5149 5149 5149 5148 5145 5142 5141 5142 5144 5146 5147 5150 5155 5155 5154 5155 5157 5160 5164 5166 5168 5170 5171 5174 5178 5182 5187 5192 5196 5200 5203 5205
5113 5116 5119 5120 5121 5120 5120 5121 5121 5122 5123 5123 5123 5122 5124 5126 5126 5124 5123 5122 5123 5126 5128 5129 5131 5133 5136 5137 5139 5141 5143 5145 5147 5148 5148 5149 5150 5148 5148 5147 5146 5145 5145 5144 5143 5143 5142 5140 5139 5140 5143 5146 5146 5150 5154 5154 5152 5152 5154 5156 5160 5162 5162 5162 5163 5165 5168 5172 5177 5181 5186 5191 5193 5194
5115 5117 5118 5119 5120 5118 5117 5117 5117 5117 5117 5118 5118 5118 5118 5119 5119 5118 5118 5119 5122 5124 5125 5126 5128 5129 5131 5133 5136 5138 5140 5143 5145 5146 5146 5147 5147 5147 5146 5145 5142 5141 5140 5139 5138 5137 5138 5138 5138 5139 5142 5145 5147 5150 5152 5152 5151 5152 5152 5153 5156 5159 5159 5158 5159 5161 5162 5163 5167 5171 5176 5179 5182 5182
5117 5117 5117 5117 5116 5115 5113 5112 5112 5112 5111 5111 5112 5113 5114 5114 5114 5115 5116 5117 5119 5120 5122 5124 5125 5126 5127 5129 5131 5133 5136 5138 5141 5144 5145 5146 5146 5145 5144 5142 5140 5138 5137 5136 5135 5135 5134 5136 5137 5139 5142 5146 5149 5151 5152 5152 5152 5152 5150 5149 5152 5155 5156 5156 5158 5159 5158 5158 5159 5162 5164 5167 5170 5172
5115 5115 5114 5113 5111 5109 5107 5106 5106 5106 5106 5106 5107 5108 5108 5110 5111 5112 5114 5115 5115 5116 5118 5120 5121 5122 5123 5125 5127 5129 5132 5134 5137 5140 5143 5144 5143 5142 5141 5140 5138 5137 5136 5134 5133 5133 5134 5135 5138 5140 5142 5146 5148 5149 5150 5150 5149 5148 5147 5148 5150 5151 5153 5154 5156 5157 5157 5156 5155 5157 5159 5161 5163 5165
5108 5107 5105 5105 5104 5102 5100 5099 5099 5099 5100 5099 5100 5101 5101 5104 5106 5108 5109 5110 5111 5112 5114 5116 5117 5118 5120 5121 5122 5125 5129 5132 5135 5137 5139 5141 5140 5139 5138 5138 5137 5136 5134 5132 5133 5135 5136 5137 5138 5139 5140 5142 5144 5145 5146 5147 5148 5148 5146 5147 5147 5147 5148 5150 5152 5153 5153 5152 5152 5155 5157 5157 5159 5160
5100 5098 5096 5095 5095 5094 5093 5092 5092 5093 5094 5094 5095 5095 5097 5098 5100 5102 5103 5104 5105 5107 5109 5112 5113 5114 5116 5118 5119 5121 5125 5129 5132 5134 5137 5138 5139 5139 5138 5137 5137 5136 5134 5134 5136 5137 5136 5136 5137 5138 5140 5141 5143 5144 5146 5148 5150 5148 5144 5143 5143 5144 5144 5146 5146 5148 5148 5148 5150 5152 5154 5153 5153 5156
5092 5090 5089 5087 5086 5086 5086 5085 5085 5087 5088 5089 5090 5091 5092 5095 5096 5097 5099 5101 5102 5103 5106 5107 5109 5111 5112 5114 5116 5118 5122 5126 5129 5131 5133 5135 5139 5140 5140 5139 5139 5138 5137 5138 5138 5137 5135 5135 5137 5138 5139 5140 5142 5144 5146 5148 5149 5145 5140 5140 5141 5141 5141 5141 5142 5143 5144 5144 5145 5146 5149 5150 5152 5155
5084 5084 5082 5080 5079 5079 5078 5079 5080 5081 5083 5084 5085 5086 5088 5091 5092 5093 5095 5096 5098 5100 5101 5103 5105 5107 5109 5111 5113 5117 5121 5124 5126 5128 5130 5132 5137 5141 5142 5142 5142 5141 5140 5140 5138 5135 5134 5135 5136 5138 5139 5141 5142 5143 5145 5147 5145 5141 5138 5138 5137 5137 5137 5137 5138 5138 5138 5139 5139 5140 5141 5143 5146 5148
5076 5076 5075 5074 5073 5073 5073 5073 5074 5076 5077 5079 5080 5081 5083 5086 5087 5088 5089 5091 5092 5093 5095 5097 5100 5102 5104 5107 5110 5114 5118 5121 5123 5126 5128 5131 5136 5140 5143 5144 5143 5141 5140 5139 5136 5134 5133 5133 5134 5136 5138 5138 5140 5142 5144 5144 5141 5138 5135 5135 5134 5134 5133 5133 5133 5134 5133 5132 5132 5133 5134 5137 5139 5140